Location: Nairn
(57.5833°N, 3.8667°W)
Time: 17:06:01
(UTC+00:00)

SL-16 R/B - Pass Details

Date: 07 August 2020
Orbit: 985 x 1007 km, 99.5° (Epoch: 23 September)

Event Time Altitude Azimuth Distance (km) Brightness Sun altitude
Exits shadow 00:28:37 - 130° (SE) 3,091 4.8 -16.1°
Reaches altitude 10° 00:29:27 10° 128° (SE) 2,785 4.5 -16.1°
Maximum altitude 00:35:23 46° 58° (ENE) 1,328 3.5 -16.0°
Drops below altitude 10° 00:41:18 10° 347° (NNW) 2,791 6.1 -16.0°
Sets 00:43:53 0° 342° (NNW) 3,742 6.8 -15.9°
